www.pogodaiklimat.ru
ПОГОДА в Новом Орлеане
Время
и дата
09:53 02.10
10:53 02.10
11:53 02.10
12:53 02.10
13:31 02.10
13:53 02.10
14:53 02.10
15:53 02.10
16:53 02.10
17:53 02.10
18:53 02.10
19:53 02.10
20:53 02.10
21:53 02.10
22:53 02.10
23:53 02.10
00:53 03.10
01:53 03.10
02:53 03.10
03:53 03.10
04:53 03.10
05:53 03.10
06:53 03.10
07:53 03.10
08:53 03.10
09:53 03.10
10:53 03.10
11:53 03.10
12:53 03.10
13:53 03.10
14:53 03.10
15:53 03.10
16:53 03.10
17:53 03.10
18:53 03.10
19:53 03.10
20:53 03.10
21:53 03.10
22:53 03.10
23:53 03.10
00:53 04.10
01:53 04.10
02:53 04.10
03:53 04.10
04:53 04.10
05:53 04.10
06:53 04.10
07:53 04.10
Ветер
(напр.,м/с)
Видим. Явления Облачность Т
(С)
Тd
(С)
f
(%)
Тe
(С)
Тes
(С)
Комфортность P
(гПа)
Po
(гПа)
Тmin
(С)
Tmax
(С)
R
(мм)
R24
(мм)
S
(см)
нст 2 16 км 2/0 7500 m
[Ci]
+23.9 +12.2 48 +26 +32 жарко 1019.6 1019.1
СЗ 3 16 км 2/0 7500 m
[Ci]
+24.4 +12.8 48 +26 +35 жарко 1019.5 1019.1
СЗ 4 16 км 2/0 7500 m
[Ci]
+26.1 +12.2 42 +28 +37 жарко 1018.9 1018.4 +13.9 +26.1
С 4 16 км 5/0 7500 m
[Ci]
+27.8 +8.9 30 +28 +37 жарко 1018.0 1017.4
С 3 16 км 5/2 150 m
[Ci]
+28.3 +8.3 28 +28 +36 жарко 1017.0
СЗ 3 16 км 2/0 7500 m
[Ci]
+27.8 +9.4 32 +28 +39 жарко 1017.2 1016.7
СЗ 3 16 км 2/0 7500 m
[Ci]
+27.8 +10.6 34 +28 +37 жарко 1016.7 1016.4
СЗ 3 16 км 5/0 7500 m
[Ci]
+28.3 +10.6 33 +29 +34 жарко 1016.7 1016.0
СЗ 2 16 км 5/0 7500 m
[Ci]
+27.2 +11.1 37 +28 +31 жарко 1016.6 1016.0
СЗ 2 16 км 5/0 7500 m
[Ci]
+25.6 +11.7 42 +27 +28 жарко 1017.0 1016.4 +25.6 +28.3
СЗ 2 16 км 2/0 7500 m
[Ci]
+23.9 +15.0 57 +27 +27 жарко 1017.4 1017.0
СЗ 2 16 км 2/0 7500 m
[Ci]
+22.8 +16.1 66 +27 +27 душно 1017.9 1017.4
С 3 16 км 5/0 7500 m
[Ci]
+23.9 +13.9 54 +26 +26 жарко 1018.4 1018.0
С 4 16 км 2/0 7500 m
[Ci]
+23.3 +13.9 55 +27 +27 душно 1018.3 1017.7
С 3 16 км 2/0 7500 m
[Ci]
+22.8 +14.4 59 +26 +26 жарко 1018.4 1018.0
С 3 16 км 2/0 7500 m
[Ci]
+22.2 +13.9 59 +25 +25 комфорт 1018.3 1017.7 +22.2 +25.0
С 3 16 км 2/0 7500 m
[Ci]
+21.7 +13.9 61 +25 +25 комфорт 1018.1 1017.7
С 2 16 км ясно +21.1 +13.9 63 +24 +24 комфорт 1017.8 1017.4
С 2 16 км 2/0 7500 m
[Ci]
+21.1 +13.3 61 +23 +23 комфорт 1018.0 1017.4
СВ 4 16 км ясно +21.1 +12.8 59 +23 +23 комфорт 1018.0 1017.7
СВ 3 16 км ясно +20.6 +12.8 61 +23 +23 комфорт 1018.3 1017.7
СВ 3 16 км 5/0 7500 m
[Ci]
+20.6 +13.3 63 +23 +23 комфорт 1018.8 1018.4 +20.0 +22.2
СВ 3 16 км ясно +20.6 +13.9 65 +23 +23 комфорт 1019.1 1018.7
СВ 4 16 км 5/0 7500 m
[Ci]
+21.7 +14.4 63 +25 +25 комфорт 1019.5 1019.1
СВ 4 16 км ясно +22.2 +14.4 61 +25 +28 комфорт 1019.8 1019.4
С 4 16 км 2/0 7500 m
[Ci]
+23.9 +14.4 55 +26 +31 жарко 1019.8 1019.4
С 3 16 км 2/0 7500 m
[Ci]
+25.0 +14.4 52 +28 +36 жарко 1019.6 1019.1
СЗ 3 16 км 2/0 7500 m
[Ci]
+25.0 +14.4 52 +28 +39 жарко 1018.9 1018.4 +20.0 +25.6
СЗ 4 16 км 2/0 7500 m
[Ci]
+26.7 +13.3 44 +29 +38 жарко 1018.0 1017.4
С 4 16 км 2/0 7500 m
[Ci]
+27.8 +12.8 40 +29 +38 жарко 1017.2 1016.7
СЗ 3 16 км 2/0 7500 m
[Ci]
+27.8 +12.2 38 +29 +38 жарко 1016.6 1016.0
СЗ 3 16 км 2/0 7500 m
[Ci]
+28.3 +11.7 36 +29 +35 жарко 1016.4 1016.0
СЗ 3 16 км ясно +27.2 +13.3 42 +29 +32 жарко 1016.4 1016.0
СЗ 3 16 км 2/0 7500 m
[Ci]
+25.0 +15.0 54 +28 +28 жарко 1016.7 1016.4 +25.0 +28.3
С 2 16 км 5/0 7500 m
[Ci]
+25.0 +16.7 60 +29 +29 душно 1017.1 1016.7
С 2 16 км 2/0 7500 m
[Ci]
+24.4 +16.7 62 +28 +28 душно 1017.8 1017.4
СВ 2 16 км 2/0 7500 m
[Ci]
+23.9 +17.8 69 +28 +28 душно 1018.2 1017.7
штиль 0 16 км 2/0 7500 m
[Ci]
+23.3 +17.2 69 +29 +29 душно 1018.4 1018.0
С 2 16 км 2/0 7500 m
[Ci]
+22.2 +18.3 79 +27 +27 душно 1018.3 1017.7
штиль 0 16 км 2/0 7500 m
[Ci]
+21.1 +17.8 81 +25 +25 комфорт 1018.0 1017.7 +21.1 +26.1
СВ 2 16 км 2/0 7500 m
[Ci]
+22.2 +16.7 71 +27 +27 душно 1018.1 1017.7
СВ 3 16 км 2/0 7500 m
[Ci]
+21.7 +17.2 76 +26 +26 душно 1017.6 1017.0
В 3 16 км 5/0 7500 m
[Ci]
+21.7 +16.7 73 +26 +26 душно 1017.4 1017.0
СВ 2 16 км 8/0 7500 m
[Ci]
+21.7 +16.7 73 +26 +26 душно 1017.4 1017.0
СВ 2 16 км 8/0 7500 m
[Ci]
+21.1 +16.7 76 +25 +25 комфорт 1017.6 1017.0
СВ 3 16 км 8/0 5400 m
[Ac Ci]
+21.7 +16.1 70 +25 +25 комфорт 1017.9 1017.4 +20.0 +22.2
СВ 4 16 км 8/0 5400 m
[Ac Ci]
+21.7 +16.7 73 +26 +26 душно 1018.2 1017.7
В 3 16 км 8/0 7500 m
[Ci]
+23.3 +17.8 71 +29 +29 душно 1018.5 1018.0
Местоположение метеостанции New Orleans International Airport: широта 29.9928 долгота -90.2508 высота над уровнем моря 1 м.
В архиве по умолчанию представлена погода в Новом Орлеане за последние 1-2 суток. Обновление информации о фактической погоде в базе происходит ежечасно! Архивные данные за месяц целиком и за предыдущие месяцы Вы можете получить, выбрав интересующий диапазон дат из раскрывающегося списка и нажав кнопку "Ввод!".
Внимание! Архив погоды МЕТАР в базе сайта по станциям, не включенным в климатический монитор, хранится не более 60 дней. Нет смысла пытаться выбрать более раннюю дату.
*Определитесь, кто Вы:
Внимание! Время в таблицах - местное (без учета летнего времени). Для получения всемирного времени необходимо вычесть поправку, которая равна -6 ч.
Смотрите также архив погоды в соседних городах и на ближайших метеорологических станциях:
Партнеры нашего сайта:      
Пояснения к столбцам:
  • Ветер - указаны скорость ветра в м/с - средняя за 10 мин, порывы в срок и между сроками (в фигурных скобках) и направление, откуда дует ветер: С - северный,
  • СВ - северо-восточный, В - восточный, ЮВ - юго-восточный, Ю - южный, ЮЗ - юго-западный, З - западный, СЗ - северо-западный.
  • Видимость - горизонтальная дальность видимости в метрах или километрах. При видимости от 1 до 10 км при отсутствии осадков обычно наблюдается дымка, при ухудшении видимости до 1 км и менее - туман. В сухую погоду видимость может ухудшаться дымом, пылью или мглою.
  • Явления - указаны атмосферные явления, наблюдавшиеся в срок или в последний час перед сроком; фигурными скобками обозначены явления, наблюдавшиеся между сроками (за 1-3 часа до срока); квадратными скобками обозначены град или гололедные отложения с указанием их диаметра в мм.
  • Облачность - указаны через наклонную черту общая и нижняя облачность в баллах и высота нижней границы облаков в метрах; квадратными скобками обозначены формы облаков: Ci - перистые, Cs - перисто-слоистые, Cc - перисто-кучевые, Ac - высококучевые, As - высокослоистые, Sc - слоисто-кучевые, Ns - слоисто-дождевые, Cu - кучевые, Cb - кучево-дождевые. Подробнее классификацию облаков см. в Атласе облаков (PDF).
  • T - Температура воздуха - температура, измеренная на высоте 2 м над землей.
  • Td - Температура точки росы - температура, при понижении до которой содержащийся в воздухе водяной пар достигнет насыщения.
  • f - Относительная влажность воздуха - влажноcть воздуха, измеренная на высоте 2 м над землей.
  • Te - Эффективная температура - температура, которую ощущает одетый по сезону человек в тени. Характеристика душности погоды. При расчете учитывается влияние влажности воздуха и скорости ветра на теплоощущения человека.
  • Tes - Эффективная температура на солнце - температура, которую ощущает человек, с поправкой на солнечный нагрев. Характеристика знойности погоды. Зависит от высоты солнца над горизонтом, облачности и скорости ветра. Ночью, в пасмурную погоду, а также при ветре 12 м/с и более поправка равна нулю.
  • P - Атмосферное давление - приведенное к уровню моря атмосферное давление.
  • Po - Атмосферное давление - измеренное на уровне метеостанции атмосферное давление.
  • Tmin - Минимальная температура - минимум температуры воздуха на высоте 2 м над землей.
  • Tmax - Максимальная температура - максимум температуры воздуха на высоте 2 м над землей.
  • R - Количество осадков - Количество выпавших осадков за период времени, мм. При наведении курсора мыши на число - период времени, за который выпало указанное количество осадков.
  • R24 - Количество осадков - Количество выпавших осадков за 24 часа, мм.
  • S - Снежный покров - Высота снежного покрова, см. При наведении курсора мыши на число - состояние снежного покрова и степень покрытия местности в баллах.